{"data":{"norad_id":66939,"intl_designator":"2025-286Q","name":"STARLINK-36154","alt_names":[],"object_type":"PAYLOAD","status":"ACTIVE","operator":null,"country":"US","launch_date":"2025-12-07","launch_site_code":"AFWTR","launch_vehicle":null,"mission":null,"orbit_class":"UNKNOWN","rcs_meters":null,"size_class":null,"mass_kg":null,"dimensions":null,"purposes":["comms"],"wikipedia_slug":null,"has_3d_model":false,"image_url":null,"decayed_at":null,"tle_current":{"epoch":"2026-09-20T06:21:52.830720Z","epoch_age_seconds":104359,"freshness":"FRESH","line1":"1 66939U 25286Q   26263.26519480  .00011670  00000+0  35588-3 0  9996","line2":"2 66939  53.1592 170.6621 0001101  86.0840 274.0289 15.34409563 45261","mean_motion":15.34409563,"eccentricity":0.0001101,"inclination_deg":53.1592,"raan_deg":170.6621,"arg_perigee_deg":86.084,"mean_anomaly_deg":274.0289,"bstar":0.00035588,"rev_number":4526,"period_min":93.84717318788,"perigee_km":461.92164372235,"apogee_km":463.42799048448,"semimajor_km":6840.8118171034,"source":"CELESTRAK","updated_at":"2026-09-21T09:00:36.058638Z"}}}